DELTA 1 DEB, 42080

Orbit data source: Space-Track

DELTA 1 DEB, 42080 is space debris in SSO originally from a launch on Sun, 15 Dec 1968 UTC launched from the Air Force Western Test Range (AFWTR). Debris objects in space refer to the collection of defunct objects orbiting the Earth. Examples of debris include non-operational satellites, rocket bodies, and fragments generated from explosions, collisions, or faulty payload assembly.

Loading next visibility...
Identifier
42080, 1968-114G
Orbit
SSO
Country
Flag of USUS
Related business
Manufacturer
Aerojet
Mission
Spacecraft
Bus & Motor
Unknown
Mass
Unknown
Launch date (UTC)
1968-12-15 (57 years ago)
Launch vehicle
Unknown
Launch site
Air Force Western Test Range (AFWTR)
Object type
Payload
Rocket body
Debris
Shape & HBR
Unknown
Radar Cross Section
Small (<0.1 m²)

Expand to show TLE details & history
Last TLE update: 5 days ago

TLE from 5 days ago
0 DELTA 1 DEB
1 42080U 68114G   25254.11306890 -.00000032  00000-0  83381-4 0  9993
2 42080 101.7950 190.0203 0067839  14.8661 358.4202 12.39293239534046
Epoch: 2025-09-11T02:42Z
TLE epoch observation values (Epoch: 2025-09-11T02:42:49.152Z)
Latitude
12.94791°
Longitude
156.19743°
Altitude
1,457.92 km
Speed
7.159 km/s
True Right ascension
12h 29m 07s
True Declination
12° 52' 47"
Sunlit
Object was in daylight at epoch
Visualization orbit readout
Latitude
Unknown
Longitude
Unknown
Altitude
Unknown
Speed
Unknown
Apparent Right ascension
Unknown
Apparent Declination
Unknown
Sunlit
N/A
Visualization observer readout
Local Sidereal Time
23:04:28
Azimuth
Unknown
Elevation
Unknown
Doppler factor
Unknown
Orbital elements
Apogee altitude
1,560.657 km
Perigee altitude
1,453.671 km
Semi-major axis
7,885.301 km
Eccentricity
0.00678
Inclination
101.795°
RAAN
190.0203°
Arg. of periapsis
14.8661°
True anomaly
358.39859°
Mean anomaly
358.4202°
Eccentric anomaly
358.40941°
Mean motion
3.09967 °/min
Orbital period
116.14 mins
BSTAR
0.000083381
Loading maneuver chart data...
Computing Atmospheric mass density...
Loading historical data...
Loading historical data...
Loading historical data...
Loading historical data...
Loading historical data...
Loading historical data...
Loading historical data...

Documentation

Showing up to 5 results
|